When you browse on this site, cookies collect data to enhance your experience and personalize the content and advertising you see.
Visit our Privacy Policy to learn more. By continuing to use the site, you agree to this use of cookies and data.
  • In Hungary
  • List of Countries
  • For 7 days
  • Water Temperature
  • Satellite Maps
  • Weather Map
  • News
  • Weather Widgets
  • user-avatar
    Login

    Hourly Weather Bratucice

    Today, 22 May, Wednesday

    Time Temperature Precipitation Wind Pressure Humidity
    00:00 +13°C° 0.6 mm 5 mps 735 mmHg 92%
    01:00 +13°C° 0 mm 4 mps 734 mmHg 94%
    02:00 +13°C° 0.8 mm 4 mps 734 mmHg 94%
    03:00 +13°C° 0.8 mm 4 mps 734 mmHg 94%
    04:00 +13°C° 0.8 mm 4 mps 735 mmHg 95%
    05:00 +13°C° 0.6 mm 4 mps 735 mmHg 93%
    06:00 +14°C° 0.6 mm 4 mps 735 mmHg 92%
    07:00 +14°C° 0.6 mm 4 mps 735 mmHg 91%
    08:00 +14°C° 0.6 mm 4 mps 735 mmHg 91%
    09:00 +14°C° 0.6 mm 4 mps 735 mmHg 91%
    10:00 +14°C° 0.6 mm 4 mps 735 mmHg 91%
    11:00 +14°C° 0.3 mm 4 mps 736 mmHg 89%
    12:00 +15°C° 0.3 mm 4 mps 736 mmHg 88%
    13:00 +15°C° 0.3 mm 4 mps 736 mmHg 87%
    14:00 +17°C° 0.9 mm 4 mps 736 mmHg 85%
    15:00 +18°C° 0.9 mm 4 mps 736 mmHg 84%
    16:00 +17°C° 0.9 mm 5 mps 736 mmHg 83%
    17:00 +16°C° 1.8 mm 5 mps 736 mmHg 85%
    18:00 +16°C° 1.8 mm 5 mps 736 mmHg 88%
    19:00 +15°C° 1.8 mm 5 mps 736 mmHg 90%
    20:00 +14°C° 1.3 mm 5 mps 737 mmHg 92%
    21:00 +14°C° 1.3 mm 5 mps 737 mmHg 94%
    22:00 +13°C° 1.3 mm 5 mps 737 mmHg 95%
    23:00 +13°C° 0.7 mm 5 mps 738 mmHg 95%

    Tomorrow, 23 May, Thursday

    Time Temperature Precipitation Wind Pressure Humidity
    00:00 +14°C° 0.7 mm 5 mps 738 mmHg 95%
    01:00 +14°C° 0.7 mm 5 mps 738 mmHg 96%
    02:00 +14°C° 0.3 mm 5 mps 739 mmHg 96%
    03:00 +14°C° 0.3 mm 5 mps 739 mmHg 96%
    04:00 +14°C° 0.3 mm 4 mps 739 mmHg 96%
    05:00 +14°C° 0.4 mm 4 mps 739 mmHg 95%
    06:00 +14°C° 0.4 mm 5 mps 740 mmHg 94%
    07:00 +15°C° 0.4 mm 5 mps 740 mmHg 93%
    08:00 +15°C° 0.8 mm 5 mps 740 mmHg 93%
    09:00 +14°C° 0.8 mm 5 mps 741 mmHg 93%
    10:00 +14°C° 0.8 mm 6 mps 741 mmHg 93%
    11:00 +14°C° 0.7 mm 6 mps 741 mmHg 92%
    12:00 +14°C° 0.7 mm 6 mps 741 mmHg 92%
    13:00 +14°C° 0.7 mm 7 mps 742 mmHg 92%
    14:00 +14°C° 1.3 mm 7 mps 742 mmHg 93%
    15:00 +13°C° 1.3 mm 6 mps 742 mmHg 93%
    16:00 +13°C° 1.3 mm 6 mps 742 mmHg 94%
    17:00 +13°C° 1.6 mm 6 mps 742 mmHg 94%
    18:00 +13°C° 1.6 mm 6 mps 742 mmHg 94%
    19:00 +12°C° 1.6 mm 5 mps 742 mmHg 94%
    20:00 +12°C° 1 mm 5 mps 743 mmHg 94%
    21:00 +12°C° 1 mm 5 mps 743 mmHg 94%
    22:00 +12°C° 1 mm 5 mps 743 mmHg 93%
    23:00 +12°C° 1.1 mm 5 mps 743 mmHg 94%

    Day after tomorrow, 24 May, Friday

    Time Temperature Precipitation Wind Pressure Humidity
    00:00 +12°C° 1.1 mm 5 mps 743 mmHg 94%
    01:00 +12°C° 1.1 mm 5 mps 743 mmHg 94%
    02:00 +12°C° 0.8 mm 4 mps 743 mmHg 94%
    03:00 +11°C° 0.8 mm 4 mps 743 mmHg 94%
    04:00 +11°C° 0.8 mm 3 mps 743 mmHg 94%
    05:00 +11°C° 0.3 mm 3 mps 743 mmHg 93%
    06:00 +11°C° 0.3 mm 3 mps 744 mmHg 92%
    07:00 +11°C° 0.3 mm 4 mps 744 mmHg 90%
    08:00 +12°C° 0 mm 4 mps 744 mmHg 85%
    09:00 +13°C° 0 mm 4 mps 744 mmHg 80%
    10:00 +14°C° 0 mm 4 mps 744 mmHg 75%
    11:00 +15°C° 0 mm 4 mps 744 mmHg 72%
    12:00 +17°C° 0 mm 4 mps 743 mmHg 69%
    13:00 +19°C° 0 mm 3 mps 743 mmHg 66%
    14:00 +19°C° 0 mm 3 mps 743 mmHg 67%
    15:00 +19°C° 0 mm 3 mps 743 mmHg 69%
    16:00 +19°C° 0 mm 3 mps 742 mmHg 70%
    17:00 +18°C° 0 mm 3 mps 742 mmHg 73%
    18:00 +17°C° 0 mm 2 mps 742 mmHg 76%
    19:00 +16°C° 0 mm 2 mps 742 mmHg 79%
    20:00 +15°C° 0 mm 2 mps 742 mmHg 81%
    21:00 +14°C° 0 mm 2 mps 742 mmHg 83%
    22:00 +13°C° 0 mm 2 mps 743 mmHg 85%
    23:00 +13°C° 0 mm 2 mps 743 mmHg 87%

    25 May, Saturday

    Time Temperature Precipitation Wind Pressure Humidity
    00:00 +12°C° 0 mm 2 mps 742 mmHg 89%
    01:00 +10°C° 0 mm 2 mps 742 mmHg 92%
    02:00 +10°C° 0 mm 2 mps 743 mmHg 92%
    03:00 +10°C° 0 mm 2 mps 743 mmHg 92%
    04:00 +9°C° 0 mm 2 mps 743 mmHg 93%
    05:00 +12°C° 0 mm 2 mps 743 mmHg 89%
    06:00 +14°C° 0 mm 2 mps 743 mmHg 85%
    07:00 +16°C° 0 mm 2 mps 743 mmHg 81%
    08:00 +17°C° 0 mm 2 mps 743 mmHg 75%
    09:00 +19°C° 0 mm 3 mps 743 mmHg 70%
    10:00 +20°C° 0 mm 3 mps 743 mmHg 65%
    11:00 +21°C° 0.1 mm 3 mps 742 mmHg 63%
    12:00 +21°C° 0.1 mm 3 mps 742 mmHg 62%
    13:00 +22°C° 0.1 mm 3 mps 742 mmHg 60%
    14:00 +22°C° 0.3 mm 4 mps 742 mmHg 62%
    15:00 +22°C° 0.3 mm 4 mps 742 mmHg 65%
    16:00 +21°C° 0.3 mm 4 mps 742 mmHg 67%
    17:00 +20°C° 0 mm 3 mps 742 mmHg 72%
    18:00 +18°C° 0 mm 2 mps 742 mmHg 78%
    19:00 +17°C° 0 mm 2 mps 742 mmHg 84%
    20:00 +16°C° 0 mm 1 mps 742 mmHg 86%
    21:00 +15°C° 0 mm 1 mps 743 mmHg 88%
    22:00 +14°C° 0 mm 1 mps 743 mmHg 89%
    23:00 +13°C° 0 mm 1 mps 743 mmHg 89%

    26 May, Sunday

    Time Temperature Precipitation Wind Pressure Humidity
    00:00 +13°C° 0 mm 2 mps 743 mmHg 88%
    01:00 +13°C° 0 mm 2 mps 743 mmHg 88%
    02:00 +12°C° 0 mm 2 mps 743 mmHg 90%
    03:00 +12°C° 0 mm 2 mps 743 mmHg 91%
    04:00 +10°C° 0 mm 2 mps 743 mmHg 93%
    05:00 +12°C° 0 mm 2 mps 743 mmHg 89%
    06:00 +14°C° 0 mm 2 mps 743 mmHg 84%
    07:00 +14°C° 0 mm 3 mps 743 mmHg 80%
    08:00 +16°C° 0 mm 3 mps 743 mmHg 76%
    09:00 +18°C° 0 mm 4 mps 742 mmHg 72%
    10:00 +19°C° 0 mm 5 mps 742 mmHg 67%
    11:00 +19°C° 0 mm 5 mps 742 mmHg 64%
    12:00 +20°C° 0 mm 5 mps 742 mmHg 61%
    13:00 +21°C° 0 mm 6 mps 742 mmHg 58%
    14:00 +20°C° 0 mm 5 mps 742 mmHg 59%
    15:00 +20°C° 0 mm 5 mps 741 mmHg 61%
    16:00 +20°C° 0 mm 4 mps 741 mmHg 62%
    17:00 +19°C° 0 mm 4 mps 741 mmHg 66%
    18:00 +17°C° 0 mm 3 mps 741 mmHg 71%
    19:00 +16°C° 0 mm 2 mps 741 mmHg 75%
    20:00 +15°C° 0 mm 2 mps 742 mmHg 76%
    21:00 +14°C° 0 mm 2 mps 742 mmHg 77%
    22:00 +13°C° 0 mm 2 mps 742 mmHg 78%
    23:00 +12°C° 0 mm 2 mps 742 mmHg 80%

    27 May, Monday

    Time Temperature Precipitation Wind Pressure Humidity
    00:00 +12°C° 0 mm 2 mps 743 mmHg 82%
    01:00 +10°C° 0 mm 2 mps 743 mmHg 84%
    02:00 +10°C° 0 mm 2 mps 743 mmHg 86%
    03:00 +10°C° 0 mm 2 mps 743 mmHg 87%
    04:00 +11°C° 0 mm 1 mps 743 mmHg 89%
    05:00 +12°C° 0 mm 1 mps 743 mmHg 84%
    06:00 +14°C° 0 mm 1 mps 743 mmHg 79%
    07:00 +16°C° 0 mm 2 mps 743 mmHg 74%
    08:00 +18°C° 0 mm 2 mps 742 mmHg 69%
    09:00 +20°C° 0 mm 2 mps 742 mmHg 64%
    10:00 +21°C° 0 mm 2 mps 742 mmHg 58%
    11:00 +23°C° 0 mm 2 mps 741 mmHg 57%
    12:00 +24°C° 0 mm 2 mps 741 mmHg 56%
    13:00 +25°C° 0 mm 2 mps 741 mmHg 55%
    14:00 +25°C° 0.1 mm 2 mps 740 mmHg 57%
    15:00 +25°C° 0.1 mm 2 mps 740 mmHg 59%
    16:00 +25°C° 0.1 mm 2 mps 740 mmHg 61%
    17:00 +23°C° 0.1 mm 2 mps 739 mmHg 66%
    18:00 +21°C° 0.1 mm 2 mps 739 mmHg 70%
    19:00 +20°C° 0.1 mm 1 mps 739 mmHg 75%
    20:00 +19°C° 0.1 mm 1 mps 739 mmHg 79%
    21:00 +18°C° 0.1 mm 1 mps 740 mmHg 82%
    22:00 +16°C° 0.1 mm 2 mps 740 mmHg 86%
    23:00 +16°C° 0.3 mm 1 mps 740 mmHg 88%
    Show more